This demonstration page uses our WeatherBlox Daily Observations layout. Learn more.

Left ArrowRight Arrow

Hourly Observations for August 9, 2022

Temp ( °F °C ) Dew Point ( °F °C ) Humidity (%) Winds ( mph kmh ) Pressure ( in mb ) Visibility ( mi km ) Precip ( " mm )
12:53 am 00:53 Mostly Cloudy with Light Rain 79 26.1 72 22.2 79 79 VRB 5 7 30.00 1016 10 16 0.01 0.13
1:41 am 01:41 Mostly Cloudy with Thunderstorms 77 25 71 21.7 82 82 VRB 3 6 30.00 1016 8 13 0.01 0.13
1:53 am 01:53 Cloudy with Thunderstorms 75 23.9 72 22.2 90 90 W 3 6 30.01 1016 10 16 0.01 0.13
2:10 am 02:10 Cloudy with Strong Thunderstorms 75 23.9 72 22.2 90 90 W 9 15 30.01 1016 2 2 0.01 0.13
2:25 am 02:25 Cloudy with Strong Thunderstorms 74 23.3 72 22.2 94 94 WNW 9 15 30.00 1016 2 3 0.00 0.00
2:39 am 02:39 Mostly Cloudy with Light Rain 74 23.3 72 22.2 94 94 VRB 3 6 29.99 1015 8 13 0.00 0.00
2:53 am 02:53 Partly Cloudy with Light Rain 73 22.8 71 21.7 94 94 E 3 6 29.98 1015 8 13 0.00 0.00
3:53 am 03:53 Clear 73 22.8 71 21.7 94 94 Calm 30.01 1016 9 14 0.00 0.00
4:53 am 04:53 Clear 72 22.2 71 21.7 97 97 Calm 30.00 1016 7 11 0.00 0.00
5:53 am 05:53 Clear with Mist and Fog 71 21.7 70 21.1 96 96 Calm 30.00 1016 5 8 0.00 0.00
6:24 am 06:24 Clear with Mist and Fog 71 21.7 70 21.1 96 96 Calm 30.00 1016 2 3 0.00 0.00
6:34 am 06:34 Clear with Mist and Fog 71 21.7 70 21.1 96 96 Calm 30.01 1016 5 8 0.00 0.00
6:53 am 06:53 Partly Cloudy with Mist and Fog 70 21.1 69 20.6 97 97 Calm 30.02 1017 3 5 0.00 0.00
7:53 am 07:53 Cloudy 73 22.8 72 22.2 96 96 Calm 30.04 1017 9 14 0.00 0.00
8:53 am 08:53 Cloudy 75 23.9 72 22.2 90 90 Calm 30.05 1018 10 16 0.00 0.00
9:44 am 09:44 Mostly Cloudy 77 25 74 23.3 90 90 VRB 3 6 30.03 1017 10 16 0.00 0.00
9:53 am 09:53 Partly Cloudy 78 25.6 73 22.8 85 85 VRB 3 6 30.04 1017 10 16 0.00 0.00
10:53 am 10:53 Partly Cloudy 80 26.7 75 23.9 85 85 SSW 3 6 30.05 1018 10 16 0.00 0.00
11:20 am 11:20 Cloudy 82 27.8 75 23.9 79 79 Calm 30.04 1017 10 16 0.00 0.00
11:27 am 11:27 Mostly Cloudy 82 27.8 75 23.9 79 79 Calm 30.04 1017 10 16 0.00 0.00
11:53 am 11:53 Partly Cloudy 83 28.3 75 23.9 77 77 VRB 5 7 30.05 1018 10 16 0.00 0.00
12:53 pm 12:53 Mostly Sunny 85 29.4 74 23.3 70 70 W 8 13 30.04 1017 10 16 0.00 0.00
1:44 pm 13:44 Mostly Cloudy with Nearby Thunderstorms 84 28.9 74 23.3 72 72 NW 7 11 30.03 1017 10 16 0.00 0.00
1:53 pm 13:53 Mostly Cloudy 85 29.4 75 23.9 72 72 NW 9 15 30.04 1017 10 16 0.00 0.00
2:08 pm 14:08 Mostly Cloudy with Nearby Thunderstorms 83 28.3 74 23.3 74 74 WNW 14 22 30.03 1017 10 16 0.00 0.00
2:21 pm 14:21 Cloudy with Thunderstorms 80 26.7 74 23.3 82 82 VRB 5 7 30.03 1017 6 10 0.01 0.13
2:44 pm 14:44 Cloudy 78 25.6 75 23.9 90 90 Calm 30.01 1016 10 16 0.01 0.25
2:53 pm 14:53 Cloudy with Light Rain 78 25.6 75 23.9 90 90 Calm 30.02 1017 10 16 0.01 0.25
3:53 pm 15:53 Sunny 80 26.7 75 23.9 85 85 Calm 30.01 1016 10 16 0.01 0.13
4:53 pm 16:53 Mostly Cloudy 83 28.3 73 22.8 72 72 NW 5 7 30.01 1016 10 16 0.00 0.00
5:53 pm 17:53 Sunny 84 28.9 72 22.2 67 67 NW 7 11 30.01 1016 10 16 0.00 0.00
6:53 pm 18:53 Cloudy 83 28.3 70 21.1 65 65 N 6 9 30.01 1016 10 16 0.00 0.00
7:53 pm 19:53 Mostly Sunny 81 27.2 71 21.7 72 72 NW 5 7 30.01 1016 10 16 0.00 0.00
8:53 pm 20:53 Clear 76 24.4 72 22.2 88 88 Calm 30.03 1017 10 16 0.00 0.00
9:53 pm 21:53 Partly Cloudy 77 25 71 21.7 82 82 N 6 9 30.06 1018 10 16 0.00 0.00
10:41 pm 22:41 Cloudy with Rain 75 23.9 72 22.2 90 90 WNW 3 6 30.07 1018 3 4 0.03 0.76
10:46 pm 22:46 Cloudy with Heavy Rain 75 23.9 72 22.2 90 90 WNW 3 6 30.07 1018 2 2 0.08 2.03
10:53 pm 22:53 Cloudy with Heavy Rain 74 23.3 72 22.2 94 94 N 6 9 30.06 1018 2 3 0.12 3.05
10:57 pm 22:57 Cloudy with Light Rain 74 23.3 72 22.2 94 94 N 5 7 30.06 1018 3 5 0.01 0.13
11:13 pm 23:13 Partly Cloudy 75 23.9 72 22.2 90 90 NNE 5 7 30.06 1018 10 16 0.01 0.13
11:53 pm 23:53 Mostly Clear 74 23.3 72 22.2 94 94 Calm 30.07 1018 10 16 0.01 0.13

Powered by AerisWeather